Location: Plzen
(49.7500°N, 13.3670°E)
Time: 03:50:23
(UTC+02:00)

ISS - Pass Details

Date: 26 May 2021
Orbit: 417 x 422 km, 51.6° (Epoch: 13 June)

Event Time Altitude Azimuth Distance (km) Brightness Sun altitude
Rises 23:01:18 0° 288° (WNW) 2,368 0.8 -14.0°
Reaches altitude 10° 23:03:27 10° 282° (WNW) 1,502 -0.4 -14.1°
Maximum altitude 23:06:41 43° 209° (SSW) 598 -3.3 -14.4°
Enters shadow 23:07:47 31° 161° (SSE) 765 -3.0 -14.5°
